{"data":{"norad_id":61674,"intl_designator":"2024-193P","name":"STARLINK-32326","alt_names":[],"object_type":"PAYLOAD","status":"ACTIVE","operator":null,"country":"US","launch_date":"2024-10-26","launch_site_code":"AFETR","launch_vehicle":null,"mission":null,"orbit_class":"UNKNOWN","rcs_meters":null,"size_class":null,"mass_kg":null,"dimensions":null,"purposes":["comms"],"wikipedia_slug":null,"has_3d_model":false,"image_url":null,"decayed_at":null,"tle_current":{"epoch":"2026-05-25T03:16:30.259776Z","epoch_age_seconds":56483,"freshness":"FRESH","line1":"1 61674U 24193P   26145.13646134  .00002192  00000+0  86146-4 0  9991","line2":"2 61674  53.1613  95.7283 0001405  84.9755 275.1406 15.30188317 88230","mean_motion":15.30188317,"eccentricity":0.0001405,"inclination_deg":53.1613,"raan_deg":95.7283,"arg_perigee_deg":84.9755,"mean_anomaly_deg":275.1406,"bstar":8.6146e-5,"rev_number":8823,"period_min":94.106064201508,"perigee_km":474.2870521065,"apogee_km":476.21285384029,"semimajor_km":6853.3869529734,"source":"CELESTRAK","updated_at":"2026-05-25T13:38:19.435907Z"}}}